| time (UTC) | temp F | wind direction | speed MPH | gust MPH | rain 1hr in | rain 24hr in | rain mn in | humidity % | barometer mb |
| 20260905222526 | 93 | 90 | 13.0 | 19.0 | 0.00 | 0.00 | 0.00 | 64 | 1010.4 |
| 20260905222022 | 93 | 84 | 12.0 | 19.0 | 0.00 | 0.00 | 0.00 | 63 | 1010.6 |
| 20260905221544 | 93 | 94 | 12.0 | 19.0 | 0.00 | 0.00 | 0.00 | 64 | 1010.7 |
| 20260905221024 | 94 | 128 | 13.0 | 19.0 | 0.00 | 0.00 | 0.00 | 64 | 1010.8 |
| 20260905220525 | 94 | 112 | 13.0 | 19.0 | 0.00 | 0.00 | 0.00 | 65 | 1010.7 |
| 20260905220053 | 94 | 102 | 11.0 | 19.0 | 0.00 | 0.00 | 0.00 | 65 | 1010.8 |
| 20260905215526 | 94 | 109 | 10.0 | 19.0 | 0.00 | 0.00 | 0.00 | 66 | 1010.8 |
| 20260905215025 | 93 | 126 | 15.0 | 19.0 | 0.00 | 0.00 | 0.00 | 67 | 1010.8 |
| 20260905214548 | 94 | 100 | 12.0 | 17.0 | 0.00 | 0.00 | 0.00 | 64 | 1010.7 |
| 20260905214022 | 93 | 112 | 10.0 | 20.0 | 0.00 | 0.00 | 0.00 | 66 | 1010.8 |
| 20260905213518 | 93 | 109 | 11.0 | 22.0 | 0.00 | 0.00 | 0.00 | 67 | 1010.9 |
| 20260905213044 | 93 | 123 | 13.0 | 22.0 | 0.00 | 0.00 | 0.00 | 68 | 1010.8 |
| 20260905212524 | 93 | 120 | 13.0 | 25.0 | 0.00 | 0.00 | 0.00 | 67 | 1010.9 |
| 20260905212025 | 93 | 119 | 15.0 | 25.0 | 0.00 | 0.00 | 0.00 | 66 | 1010.9 |
| 20260905211546 | 94 | 123 | 13.0 | 20.0 | 0.00 | 0.00 | 0.00 | 66 | 1011.0 |
| 20260905211024 | 93 | 119 | 12.0 | 20.0 | 0.00 | 0.00 | 0.00 | 66 | 1011.1 |
| 20260905210523 | 93 | 118 | 13.0 | 18.0 | 0.00 | 0.00 | 0.00 | 68 | 1011.1 |
| 20260905210045 | 92 | 129 | 11.0 | 20.0 | 0.00 | 0.00 | 0.00 | 69 | 1011.0 |
| 20260905205522 | 92 | 127 | 11.0 | 21.0 | 0.00 | 0.00 | 0.00 | 68 | 1011.1 |
| 20260905205024 | 92 | 126 | 12.0 | 21.0 | 0.00 | 0.00 | 0.00 | 68 | 1011.1 |
| 20260905204541 | 92 | 155 | 11.0 | 20.0 | 0.00 | 0.00 | 0.00 | 70 | 1011.1 |
| 20260905204023 | 91 | 140 | 12.0 | 20.0 | 0.00 | 0.00 | 0.00 | 70 | 1011.4 |
| 20260905203523 | 91 | 125 | 11.0 | 18.0 | 0.00 | 0.00 | 0.00 | 71 | 1011.5 |
| 20260905203046 | 91 | 126 | 11.0 | 21.0 | 0.00 | 0.00 | 0.00 | 71 | 1011.6 |
| 20260905202523 | 91 | 132 | 13.0 | 21.0 | 0.00 | 0.00 | 0.00 | 69 | 1011.8 |
| 20260905202023 | 91 | 127 | 13.0 | 20.0 | 0.00 | 0.00 | 0.00 | 68 | 1011.8 |
| 20260905201547 | 91 | 138 | 14.0 | 19.0 | 0.00 | 0.00 | 0.00 | 68 | 1012.0 |
| 20260905201023 | 92 | 129 | 11.0 | 18.0 | 0.00 | 0.00 | 0.00 | 68 | 1012.1 |
| 20260905200523 | 92 | 116 | 11.0 | 20.0 | 0.00 | 0.00 | 0.00 | 67 | 1012.1 |
| 20260905200051 | 93 | 109 | 14.0 | 20.0 | 0.00 | 0.00 | 0.00 | 65 | 1012.2 |
| 20260905195531 | 94 | 86 | 11.0 | 20.0 | 0.00 | 0.00 | 0.00 | 65 | 1012.2 |
| 20260905195027 | 95 | 138 | 14.0 | 20.0 | 0.00 | 0.00 | 0.00 | 62 | 1012.2 |
| 20260905194552 | 96 | 136 | 12.0 | 19.0 | 0.00 | 0.00 | 0.00 | 61 | 1012.2 |
| 20260905194023 | 96 | 146 | 11.0 | 19.0 | 0.00 | 0.00 | 0.00 | 63 | 1012.3 |
| 20260905193524 | 95 | 122 | 11.0 | 18.0 | 0.00 | 0.00 | 0.00 | 65 | 1012.4 |
| 20260905193045 | 95 | 126 | 12.0 | 18.0 | 0.00 | 0.00 | 0.00 | 65 | 1012.6 |
| 20260905192521 | 95 | 135 | 10.0 | 17.0 | 0.00 | 0.00 | 0.00 | 64 | 1012.7 |
| 20260905192025 | 96 | 101 | 11.0 | 17.0 | 0.00 | 0.00 | 0.00 | 63 | 1012.7 |
| 20260905191546 | 95 | 82 | 11.0 | 17.0 | 0.00 | 0.00 | 0.00 | 63 | 1012.6 |
| 20260905191021 | 96 | 132 | 10.0 | 18.0 | 0.00 | 0.00 | 0.00 | 61 | 1012.7 |
| 20260905190523 | 96 | 119 | 10.0 | 18.0 | 0.00 | 0.00 | 0.00 | 60 | 1012.7 |
| 20260905190050 | 96 | 113 | 11.0 | 18.0 | 0.00 | 0.00 | 0.00 | 59 | 1012.8 |
| 20260905185524 | 95 | 114 | 11.0 | 18.0 | 0.00 | 0.00 | 0.00 | 62 | 1012.7 |
| 20260905185023 | 95 | 133 | 10.0 | 19.0 | 0.00 | 0.00 | 0.00 | 65 | 1012.8 |
| 20260905184601 | 95 | 107 | 13.0 | 19.0 | 0.00 | 0.00 | 0.00 | 61 | 1012.8 |
| 20260905184023 | 95 | 87 | 10.0 | 18.0 | 0.00 | 0.00 | 0.00 | 62 | 1012.9 |
| 20260905183523 | 94 | 125 | 12.0 | 18.0 | 0.00 | 0.00 | 0.00 | 64 | 1012.9 |
| 20260905183051 | 94 | 128 | 10.0 | 17.0 | 0.00 | 0.00 | 0.00 | 66 | 1012.9 |
| 20260905182523 | 94 | 156 | 12.0 | 17.0 | 0.00 | 0.00 | 0.00 | 63 | 1013.0 |
| 20260905182023 | 93 | 173 | 9.0 | 16.0 | 0.00 | 0.00 | 0.00 | 64 | 1013.2 |
| 20260905181557 | 93 | 111 | 10.0 | 16.0 | 0.00 | 0.00 | 0.00 | 64 | 1013.3 |
| 20260905181023 | 94 | 126 | 11.0 | 15.0 | 0.00 | 0.00 | 0.00 | 63 | 1013.4 |
| 20260905180524 | 95 | 103 | 9.0 | 18.0 | 0.00 | 0.00 | 0.00 | 63 | 1013.4 |
| 20260905180043 | 95 | 155 | 9.0 | 18.0 | 0.00 | 0.00 | 0.00 | 61 | 1013.5 |
| 20260905175531 | 95 | 139 | 10.0 | 18.0 | 0.00 | 0.00 | 0.00 | 60 | 1013.7 |
| 20260905175024 | 95 | 121 | 9.0 | 18.0 | 0.00 | 0.00 | 0.00 | 62 | 1013.7 |
| 20260905174548 | 94 | 135 | 12.0 | 17.0 | 0.00 | 0.00 | 0.00 | 64 | 1013.7 |
| 20260905174024 | 94 | 102 | 12.0 | 16.0 | 0.00 | 0.00 | 0.00 | 62 | 1013.6 |
| 20260905173524 | 93 | 127 | 10.0 | 16.0 | 0.00 | 0.00 | 0.00 | 62 | 1013.7 |
| 20260905173048 | 93 | 134 | 8.0 | 14.0 | 0.00 | 0.00 | 0.00 | 65 | 1013.6 |
| 20260905172521 | 93 | 129 | 11.0 | 16.0 | 0.00 | 0.00 | 0.00 | 65 | 1013.8 |
| 20260905172025 | 93 | 139 | 11.0 | 16.0 | 0.00 | 0.00 | 0.00 | 65 | 1013.8 |
| 20260905171544 | 93 | 126 | 10.0 | 16.0 | 0.00 | 0.00 | 0.00 | 63 | 1013.9 |
| 20260905171024 | 93 | 158 | 9.0 | 17.0 | 0.00 | 0.00 | 0.00 | 65 | 1013.9 |
| 20260905170524 | 93 | 108 | 9.0 | 17.0 | 0.00 | 0.00 | 0.00 | 65 | 1014.0 |
| 20260905170043 | 93 | 133 | 10.0 | 17.0 | 0.00 | 0.00 | 0.00 | 65 | 1014.0 |
| 20260905165523 | 92 | 152 | 8.0 | 15.0 | 0.00 | 0.00 | 0.00 | 65 | 1013.9 |
| 20260905165025 | 92 | 126 | 10.0 | 15.0 | 0.00 | 0.00 | 0.00 | 68 | 1013.9 |
| 20260905164550 | 92 | 135 | 9.0 | 16.0 | 0.00 | 0.00 | 0.00 | 68 | 1013.9 |
| 20260905164023 | 92 | 117 | 9.0 | 16.0 | 0.00 | 0.00 | 0.00 | 69 | 1014.0 |
| 20260905163521 | 92 | 125 | 8.0 | 13.0 | 0.00 | 0.00 | 0.00 | 68 | 1014.1 |
| 20260905163044 | 92 | 109 | 8.0 | 14.0 | 0.00 | 0.00 | 0.00 | 67 | 1014.1 |
| 20260905162524 | 92 | 134 | 9.0 | 14.0 | 0.00 | 0.00 | 0.00 | 67 | 1014.2 |
| 20260905162024 | 92 | 146 | 8.0 | 15.0 | 0.00 | 0.00 | 0.00 | 66 | 1014.2 |
| 20260905161542 | 92 | 135 | 10.0 | 15.0 | 0.00 | 0.00 | 0.00 | 68 | 1014.2 |
| 20260905161024 | 92 | 129 | 9.0 | 15.0 | 0.00 | 0.00 | 0.00 | 68 | 1014.1 |
| 20260905160523 | 92 | 123 | 10.0 | 15.0 | 0.00 | 0.00 | 0.00 | 70 | 1014.0 |
| 20260905160051 | 92 | 157 | 9.0 | 15.0 | 0.00 | 0.00 | 0.00 | 70 | 1014.1 |
| 20260905155522 | 92 | 117 | 10.0 | 15.0 | 0.00 | 0.00 | 0.00 | 70 | 1014.1 |
| 20260905155022 | 92 | 131 | 10.0 | 15.0 | 0.00 | 0.00 | 0.00 | 70 | 1014.0 |
| 20260905154550 | 92 | 170 | 8.0 | 14.0 | 0.00 | 0.00 | 0.00 | 70 | 1014.0 |
| 20260905154022 | 92 | 153 | 7.0 | 14.0 | 0.00 | 0.00 | 0.00 | 69 | 1014.0 |
| 20260905153521 | 92 | 140 | 9.0 | 14.0 | 0.00 | 0.00 | 0.00 | 68 | 1014.0 |
| 20260905153054 | 92 | 143 | 9.0 | 14.0 | 0.00 | 0.00 | 0.00 | 70 | 1014.0 |
| 20260905152525 | 91 | 139 | 8.0 | 13.0 | 0.00 | 0.00 | 0.00 | 71 | 1013.9 |
| 20260905152024 | 91 | 159 | 7.0 | 13.0 | 0.00 | 0.00 | 0.00 | 71 | 1014.0 |
| 20260905151554 | 90 | 114 | 8.0 | 13.0 | 0.00 | 0.00 | 0.00 | 72 | 1014.0 |
| 20260905151023 | 90 | 150 | 8.0 | 13.0 | 0.00 | 0.00 | 0.00 | 73 | 1014.0 |
| 20260905150523 | 89 | 182 | 7.0 | 13.0 | 0.00 | 0.00 | 0.00 | 75 | 1014.0 |
| 20260905150051 | 88 | 149 | 8.0 | 13.0 | 0.00 | 0.00 | 0.00 | 76 | 1014.1 |
| 20260905145522 | 88 | 161 | 6.0 | 10.0 | 0.00 | 0.00 | 0.00 | 79 | 1014.0 |
| 20260905145022 | 87 | 178 | 5.0 | 10.0 | 0.00 | 0.00 | 0.00 | 80 | 1014.1 |
| 20260905144548 | 87 | 153 | 6.0 | 10.0 | 0.00 | 0.00 | 0.00 | 80 | 1014.0 |
| 20260905144022 | 87 | 155 | 4.0 | 9.0 | 0.00 | 0.00 | 0.00 | 82 | 1014.0 |
| 20260905143519 | 86 | 153 | 5.0 | 9.0 | 0.00 | 0.00 | 0.00 | 82 | 1013.9 |
| 20260905143043 | 86 | 156 | 6.0 | 9.0 | 0.00 | 0.00 | 0.00 | 83 | 1013.9 |
| 20260905142525 | 86 | 153 | 5.0 | 8.0 | 0.00 | 0.00 | 0.00 | 83 | 1014.0 |
| 20260905142024 | 85 | 178 | 3.0 | 9.0 | 0.00 | 0.00 | 0.00 | 84 | 1013.9 |
| 20260905141546 | 85 | 169 | 4.0 | 9.0 | 0.00 | 0.00 | 0.00 | 85 | 1013.9 |
| 20260905141023 | 85 | 181 | 6.0 | 10.0 | 0.00 | 0.00 | 0.00 | 84 | 1013.8 |
| 20260905140521 | 85 | 117 | 5.0 | 10.0 | 0.00 | 0.00 | 0.00 | 85 | 1013.7 |
| 20260905140052 | 85 | 176 | 5.0 | 10.0 | 0.00 | 0.00 | 0.00 | 85 | 1013.6 |
| 20260905135521 | 85 | 155 | 3.0 | 9.0 | 0.00 | 0.00 | 0.00 | 86 | 1013.5 |
| 20260905135023 | 84 | 145 | 5.0 | 8.0 | 0.00 | 0.00 | 0.00 | 86 | 1013.3 |
| 20260905134545 | 84 | 156 | 3.0 | 7.0 | 0.00 | 0.00 | 0.00 | 87 | 1013.2 |
| 20260905134021 | 84 | 158 | 3.0 | 7.0 | 0.00 | 0.00 | 0.00 | 87 | 1013.3 |
| 20260905133520 | 84 | 136 | 3.0 | 7.0 | 0.00 | 0.00 | 0.00 | 88 | 1013.3 |
| 20260905133042 | 83 | 148 | 5.0 | 7.0 | 0.00 | 0.00 | 0.00 | 88 | 1013.2 |
| 20260905132524 | 83 | 156 | 4.0 | 7.0 | 0.00 | 0.00 | 0.00 | 89 | 1013.1 |
| 20260905132024 | 83 | 141 | 3.0 | 7.0 | 0.00 | 0.00 | 0.00 | 89 | 1013.1 |
| 20260905131605 | 83 | 153 | 2.0 | 6.0 | 0.00 | 0.00 | 0.00 | 89 | 1013.0 |
| 20260905131023 | 83 | 153 | 2.0 | 6.0 | 0.00 | 0.00 | 0.00 | 90 | 1013.0 |
| 20260905130522 | 82 | 152 | 3.0 | 6.0 | 0.00 | 0.00 | 0.00 | 90 | 1013.0 |
| 20260905130050 | 82 | 153 | 2.0 | 6.0 | 0.00 | 0.00 | 0.00 | 90 | 1013.0 |
| 20260905125521 | 82 | 119 | 1.0 | 4.0 | 0.00 | 0.00 | 0.00 | 90 | 1013.0 |
| 20260905125021 | 82 | 119 | 1.0 | 4.0 | 0.00 | 0.00 | 0.00 | 90 | 1013.0 |
| 20260905124544 | 82 | 119 | 2.0 | 5.0 | 0.00 | 0.00 | 0.00 | 90 | 1012.9 |
| 20260905124025 | 82 | 108 | 1.0 | 5.0 | 0.00 | 0.00 | 0.00 | 91 | 1012.7 |
| 20260905123524 | 82 | 158 | 2.0 | 3.0 | 0.00 | 0.00 | 0.00 | 91 | 1012.7 |
| 20260905123043 | 82 | 158 | 1.0 | 3.0 | 0.00 | 0.00 | 0.00 | 90 | 1012.7 |
| 20260905122525 | 82 | 158 | 1.0 | 2.0 | 0.00 | 0.00 | 0.00 | 90 | 1012.5 |
| 20260905122023 | 82 | 0 | 0.0 | 2.0 | 0.00 | 0.00 | 0.00 | 90 | 1012.6 |
| 20260905121547 | 82 | 0 | 0.0 | 1.0 | 0.00 | 0.00 | 0.00 | 90 | 1012.7 |
| 20260905121024 | 82 | 0 | 0.0 | 2.0 | 0.00 | 0.00 | 0.00 | 90 | 1012.6 |
| 20260905120527 | 82 | 158 | 0.0 | 4.0 | 0.00 | 0.00 | 0.00 | 90 | 1012.5 |
| 20260905120044 | 82 | 158 | 1.0 | 4.0 | 0.00 | 0.00 | 0.00 | 90 | 1012.3 |
| 20260905115528 | 82 | 158 | 1.0 | 6.0 | 0.00 | 0.00 | 0.00 | 90 | 1012.2 |
| 20260905115025 | 82 | 158 | 2.0 | 6.0 | 0.00 | 0.00 | 0.00 | 90 | 1012.2 |
| 20260905114548 | 82 | 148 | 2.0 | 5.0 | 0.00 | 0.00 | 0.00 | 90 | 1012.2 |
| 20260905114021 | 82 | 170 | 3.0 | 6.0 | 0.00 | 0.00 | 0.00 | 90 | 1012.1 |
| 20260905113522 | 82 | 169 | 4.0 | 6.0 | 0.00 | 0.00 | 0.00 | 90 | 1012.3 |
| 20260905113046 | 82 | 172 | 2.0 | 6.0 | 0.00 | 0.00 | 0.00 | 90 | 1012.2 |
| 20260905112521 | 82 | 153 | 2.0 | 6.0 | 0.00 | 0.00 | 0.00 | 90 | 1012.1 |
| 20260905112023 | 82 | 173 | 1.0 | 6.0 | 0.00 | 0.00 | 0.00 | 90 | 1012.2 |
| 20260905111602 | 82 | 173 | 2.0 | 7.0 | 0.00 | 0.00 | 0.00 | 90 | 1012.1 |
| 20260905111024 | 82 | 175 | 3.0 | 7.0 | 0.00 | 0.00 | 0.00 | 90 | 1012.2 |
| 20260905110524 | 82 | 172 | 1.0 | 3.0 | 0.00 | 0.00 | 0.00 | 90 | 1012.1 |
| 20260905110044 | 82 | 172 | 1.0 | 3.0 | 0.00 | 0.00 | 0.00 | 90 | 1012.1 |
| 20260905105524 | 82 | 172 | 1.0 | 3.0 | 0.00 | 0.00 | 0.00 | 90 | 1012.3 |
| 20260905105023 | 82 | 0 | 0.0 | 5.0 | 0.00 | 0.00 | 0.00 | 90 | 1012.2 |
| 20260905104547 | 82 | 172 | 1.0 | 6.0 | 0.00 | 0.00 | 0.00 | 90 | 1012.1 |
| 20260905104021 | 82 | 172 | 1.0 | 6.0 | 0.00 | 0.00 | 0.00 | 90 | 1012.2 |
| 20260905103523 | 82 | 172 | 3.0 | 6.0 | 0.00 | 0.00 | 0.00 | 90 | 1012.2 |
| 20260905103045 | 82 | 199 | 2.0 | 6.0 | 0.00 | 0.00 | 0.00 | 90 | 1012.2 |
| 20260905102521 | 82 | 194 | 1.0 | 5.0 | 0.00 | 0.00 | 0.00 | 90 | 1012.2 |
| 20260905102024 | 82 | 194 | 0.0 | 4.0 | 0.00 | 0.00 | 0.00 | 90 | 1012.2 |
| 20260905101548 | 82 | 194 | 2.0 | 4.0 | 0.00 | 0.00 | 0.00 | 90 | 1012.2 |
| 20260905101023 | 82 | 170 | 1.0 | 5.0 | 0.00 | 0.00 | 0.00 | 90 | 1012.2 |
| 20260905100529 | 82 | 170 | 2.0 | 5.0 | 0.00 | 0.00 | 0.00 | 90 | 1012.1 |
| 20260905100041 | 82 | 170 | 2.0 | 5.0 | 0.00 | 0.00 | 0.00 | 90 | 1012.2 |
| 20260905095524 | 82 | 170 | 2.0 | 5.0 | 0.00 | 0.00 | 0.00 | 90 | 1012.2 |
| 20260905095024 | 82 | 170 | 1.0 | 5.0 | 0.00 | 0.00 | 0.00 | 90 | 1012.2 |
| 20260905094545 | 82 | 170 | 2.0 | 4.0 | 0.00 | 0.00 | 0.00 | 89 | 1012.2 |
| 20260905094021 | 82 | 170 | 1.0 | 5.0 | 0.00 | 0.00 | 0.00 | 89 | 1012.2 |
| 20260905093521 | 82 | 170 | 1.0 | 5.0 | 0.00 | 0.00 | 0.00 | 89 | 1012.3 |
| 20260905093046 | 82 | 170 | 2.0 | 4.0 | 0.00 | 0.00 | 0.00 | 89 | 1012.2 |
| 20260905092522 | 82 | 190 | 1.0 | 3.0 | 0.00 | 0.00 | 0.00 | 89 | 1012.2 |
| 20260905092028 | 82 | 189 | 1.0 | 7.0 | 0.00 | 0.00 | 0.00 | 89 | 1012.2 |
| 20260905091546 | 82 | 190 | 1.0 | 7.0 | 0.00 | 0.00 | 0.00 | 89 | 1012.3 |
| 20260905091025 | 83 | 201 | 3.0 | 6.0 | 0.00 | 0.00 | 0.00 | 89 | 1012.3 |
| 20260905090526 | 83 | 188 | 2.0 | 6.0 | 0.00 | 0.00 | 0.00 | 89 | 1012.3 |
| 20260905090052 | 83 | 191 | 4.0 | 6.0 | 0.00 | 0.00 | 0.00 | 88 | 1012.3 |
| 20260905085522 | 83 | 159 | 4.0 | 8.0 | 0.00 | 0.00 | 0.00 | 88 | 1012.2 |
| 20260905085022 | 83 | 177 | 4.0 | 10.0 | 0.00 | 0.00 | 0.00 | 88 | 1012.2 |
| 20260905084545 | 83 | 173 | 5.0 | 10.0 | 0.00 | 0.00 | 0.00 | 88 | 1012.3 |
| 20260905084021 | 83 | 164 | 6.0 | 10.0 | 0.00 | 0.00 | 0.00 | 88 | 1012.2 |
| 20260905083521 | 83 | 173 | 4.0 | 10.0 | 0.00 | 0.00 | 0.00 | 88 | 1012.3 |
| 20260905083047 | 83 | 154 | 6.0 | 10.0 | 0.00 | 0.00 | 0.00 | 88 | 1012.3 |
| 20260905082520 | 83 | 162 | 5.0 | 9.0 | 0.00 | 0.00 | 0.00 | 88 | 1012.4 |
| 20260905082027 | 83 | 159 | 5.0 | 9.0 | 0.00 | 0.00 | 0.00 | 88 | 1012.4 |
| 20260905081544 | 83 | 149 | 4.0 | 8.0 | 0.00 | 0.00 | 0.00 | 88 | 1012.4 |
| 20260905081025 | 83 | 169 | 6.0 | 9.0 | 0.00 | 0.00 | 0.00 | 88 | 1012.3 |
| 20260905080523 | 83 | 136 | 4.0 | 9.0 | 0.00 | 0.00 | 0.00 | 87 | 1012.2 |
| 20260905080046 | 83 | 159 | 5.0 | 11.0 | 0.00 | 0.00 | 0.00 | 87 | 1012.2 |
| 20260905075525 | 83 | 151 | 6.0 | 11.0 | 0.00 | 0.00 | 0.00 | 87 | 1012.3 |
| 20260905075019 | 83 | 153 | 6.0 | 11.0 | 0.00 | 0.00 | 0.00 | 87 | 1012.4 |
| 20260905074550 | 83 | 146 | 7.0 | 11.0 | 0.00 | 0.00 | 0.00 | 87 | 1012.4 |
| 20260905074025 | 83 | 156 | 8.0 | 12.0 | 0.00 | 0.00 | 0.00 | 87 | 1012.5 |
| 20260905073526 | 83 | 173 | 7.0 | 12.0 | 0.00 | 0.00 | 0.00 | 87 | 1012.5 |
| 20260905073102 | 83 | 162 | 6.0 | 10.0 | 0.00 | 0.00 | 0.00 | 87 | 1012.5 |
| 20260905072524 | 83 | 146 | 6.0 | 11.0 | 0.00 | 0.00 | 0.00 | 87 | 1012.6 |
| 20260905072022 | 83 | 158 | 6.0 | 11.0 | 0.00 | 0.00 | 0.00 | 87 | 1012.7 |
| 20260905071548 | 83 | 128 | 6.0 | 12.0 | 0.00 | 0.00 | 0.00 | 86 | 1012.7 |
| 20260905071023 | 83 | 129 | 5.0 | 12.0 | 0.00 | 0.00 | 0.00 | 86 | 1012.7 |
| 20260905070522 | 83 | 130 | 7.0 | 12.0 | 0.00 | 0.00 | 0.00 | 86 | 1012.8 |
| 20260905070047 | 83 | 129 | 8.0 | 11.0 | 0.00 | 0.00 | 0.00 | 86 | 1012.8 |
| 20260905065524 | 83 | 136 | 8.0 | 13.0 | 0.00 | 0.00 | 0.00 | 86 | 1012.6 |
| 20260905065027 | 83 | 132 | 7.0 | 13.0 | 0.00 | 0.00 | 0.00 | 86 | 1012.7 |
| 20260905064546 | 83 | 144 | 7.0 | 12.0 | 0.00 | 0.00 | 0.00 | 86 | 1012.7 |
| 20260905064023 | 83 | 120 | 6.0 | 11.0 | 0.00 | 0.00 | 0.00 | 86 | 1012.7 |
| 20260905063523 | 83 | 128 | 7.0 | 11.0 | 0.00 | 0.00 | 0.00 | 86 | 1012.8 |
| 20260905063051 | 83 | 139 | 6.0 | 11.0 | 0.00 | 0.00 | 0.00 | 86 | 1012.7 |
| 20260905062525 | 83 | 137 | 7.0 | 11.0 | 0.00 | 0.00 | 0.00 | 86 | 1012.8 |
| 20260905062023 | 83 | 157 | 5.0 | 10.0 | 0.00 | 0.00 | 0.00 | 86 | 1012.8 |
| 20260905061548 | 83 | 150 | 4.0 | 9.0 | 0.00 | 0.00 | 0.00 | 86 | 1013.0 |
| 20260905061021 | 83 | 155 | 5.0 | 9.0 | 0.00 | 0.00 | 0.00 | 86 | 1013.1 |
| 20260905060521 | 83 | 153 | 5.0 | 9.0 | 0.00 | 0.00 | 0.00 | 86 | 1013.2 |
| 20260905060046 | 83 | 148 | 4.0 | 8.0 | 0.00 | 0.00 | 0.00 | 86 | 1013.2 |
| 20260905055522 | 83 | 153 | 3.0 | 9.0 | 0.00 | 0.00 | 0.00 | 86 | 1013.1 |
| 20260905055023 | 83 | 149 | 4.0 | 9.0 | 0.00 | 0.00 | 0.00 | 85 | 1013.2 |
| 20260905054546 | 83 | 163 | 5.0 | 10.0 | 0.00 | 0.00 | 0.00 | 85 | 1013.1 |
| 20260905054023 | 83 | 155 | 5.0 | 10.0 | 0.00 | 0.00 | 0.00 | 85 | 1013.1 |
| 20260905053524 | 83 | 138 | 6.0 | 9.0 | 0.00 | 0.00 | 0.00 | 85 | 1013.2 |
| 20260905053132 | 83 | 169 | 5.0 | 10.0 | 0.00 | 0.00 | 0.00 | 85 | 1013.2 |
| 20260905052523 | 83 | 150 | 4.0 | 10.0 | 0.00 | 0.00 | 0.00 | 85 | 1013.3 |
| 20260905052024 | 83 | 136 | 4.0 | 8.0 | 0.00 | 0.00 | 0.00 | 84 | 1013.3 |
| 20260905051547 | 83 | 147 | 5.0 | 9.0 | 0.00 | 0.00 | 0.00 | 84 | 1013.2 |
| 20260905051023 | 83 | 144 | 5.0 | 9.0 | 0.00 | 0.00 | 0.00 | 84 | 1013.2 |
| 20260905050521 | 83 | 142 | 5.0 | 10.0 | 0.00 | 0.00 | 0.00 | 84 | 1013.2 |
| 20260905050046 | 83 | 145 | 6.0 | 10.0 | 0.00 | 0.00 | 0.00 | 84 | 1013.2 |
| 20260905045520 | 83 | 159 | 6.0 | 10.0 | 0.00 | 0.00 | 0.00 | 84 | 1013.2 |
| 20260905045021 | 83 | 140 | 6.0 | 10.0 | 0.00 | 0.00 | 0.00 | 84 | 1013.1 |
| 20260905044545 | 83 | 140 | 7.0 | 12.0 | 0.00 | 0.00 | 0.00 | 84 | 1013.1 |
| 20260905044023 | 83 | 132 | 7.0 | 12.0 | 0.00 | 0.00 | 0.00 | 84 | 1013.0 |
| 20260905043525 | 83 | 138 | 5.0 | 13.0 | 0.00 | 0.00 | 0.00 | 84 | 1013.1 |
| 20260905043051 | 83 | 154 | 7.0 | 13.0 | 0.00 | 0.00 | 0.00 | 84 | 1013.1 |
| 20260905042525 | 83 | 151 | 8.0 | 12.0 | 0.00 | 0.00 | 0.00 | 84 | 1013.2 |
| 20260905042024 | 84 | 144 | 6.0 | 12.0 | 0.00 | 0.00 | 0.00 | 84 | 1013.3 |
| 20260905041547 | 84 | 157 | 7.0 | 12.0 | 0.00 | 0.00 | 0.00 | 84 | 1013.2 |
| 20260905041019 | 84 | 162 | 6.0 | 12.0 | 0.00 | 0.00 | 0.00 | 84 | 1013.2 |
| 20260905040522 | 84 | 148 | 7.0 | 14.0 | 0.00 | 0.00 | 0.00 | 84 | 1013.1 |
| 20260905040044 | 84 | 159 | 8.0 | 14.0 | 0.00 | 0.00 | 0.00 | 84 | 1013.1 |
| 20260905035524 | 84 | 148 | 8.0 | 14.0 | 0.00 | 0.00 | 0.00 | 84 | 1013.0 |
| 20260905035024 | 84 | 157 | 9.0 | 14.0 | 0.00 | 0.00 | 0.00 | 84 | 1013.1 |
| 20260905034551 | 84 | 169 | 8.0 | 11.0 | 0.00 | 0.00 | 0.00 | 84 | 1013.2 |
| 20260905034024 | 84 | 148 | 7.0 | 15.0 | 0.00 | 0.00 | 0.00 | 84 | 1013.3 |
| 20260905033527 | 84 | 128 | 6.0 | 15.0 | 0.00 | 0.00 | 0.00 | 83 | 1013.3 |
| 20260905033059 | 84 | 140 | 9.0 | 16.0 | 0.00 | 0.00 | 0.00 | 83 | 1013.3 |
| 20260905032527 | 84 | 136 | 9.0 | 16.0 | 0.00 | 0.00 | 0.00 | 83 | 1013.3 |
| 20260905032025 | 84 | 136 | 9.0 | 15.0 | 0.00 | 0.00 | 0.00 | 83 | 1013.2 |
| 20260905031545 | 85 | 129 | 6.0 | 15.0 | 0.00 | 0.00 | 0.00 | 83 | 1013.3 |
| 20260905031023 | 84 | 145 | 9.0 | 17.0 | 0.00 | 0.00 | 0.00 | 82 | 1013.3 |
| 20260905030524 | 85 | 141 | 10.0 | 17.0 | 0.00 | 0.00 | 0.00 | 82 | 1013.2 |
| 20260905030051 | 85 | 128 | 11.0 | 16.0 | 0.00 | 0.00 | 0.00 | 82 | 1013.2 |
| 20260905025524 | 85 | 154 | 9.0 | 17.0 | 0.00 | 0.00 | 0.00 | 82 | 1013.2 |
| 20260905025023 | 85 | 131 | 10.0 | 17.0 | 0.00 | 0.00 | 0.00 | 82 | 1013.2 |
| 20260905024547 | 85 | 130 | 11.0 | 15.0 | 0.00 | 0.00 | 0.00 | 82 | 1013.1 |
| 20260905024024 | 85 | 131 | 11.0 | 15.0 | 0.00 | 0.00 | 0.00 | 82 | 1013.0 |
| 20260905023521 | 85 | 132 | 10.0 | 16.0 | 0.00 | 0.00 | 0.00 | 82 | 1012.9 |
| 20260905023052 | 85 | 142 | 10.0 | 17.0 | 0.00 | 0.00 | 0.00 | 82 | 1012.8 |
| 20260905022518 | 85 | 130 | 11.0 | 17.0 | 0.00 | 0.00 | 0.00 | 82 | 1012.8 |
| 20260905022025 | 85 | 128 | 12.0 | 17.0 | 0.00 | 0.00 | 0.00 | 82 | 1012.6 |
| 20260905021543 | 85 | 138 | 11.0 | 17.0 | 0.00 | 0.00 | 0.00 | 83 | 1012.4 |
| 20260905021024 | 85 | 123 | 12.0 | 16.0 | 0.00 | 0.00 | 0.00 | 82 | 1012.4 |
| 20260905020525 | 85 | 136 | 11.0 | 17.0 | 0.00 | 0.00 | 0.00 | 82 | 1012.4 |
| 20260905020059 | 85 | 133 | 10.0 | 17.0 | 0.00 | 0.00 | 0.00 | 82 | 1012.4 |
| 20260905015521 | 85 | 113 | 9.0 | 18.0 | 0.00 | 0.00 | 0.00 | 82 | 1012.3 |
| 20260905015023 | 85 | 127 | 12.0 | 18.0 | 0.00 | 0.00 | 0.00 | 81 | 1012.3 |
| 20260905014546 | 85 | 131 | 11.0 | 17.0 | 0.00 | 0.00 | 0.00 | 81 | 1012.3 |
| 20260905014021 | 85 | 115 | 12.0 | 21.0 | 0.00 | 0.00 | 0.00 | 81 | 1012.3 |
| 20260905013522 | 85 | 130 | 14.0 | 21.0 | 0.00 | 0.00 | 0.00 | 80 | 1012.3 |
| 20260905013046 | 85 | 128 | 11.0 | 21.0 | 0.00 | 0.00 | 0.00 | 80 | 1012.2 |
| 20260905012524 | 85 | 138 | 14.0 | 21.0 | 0.00 | 0.00 | 0.00 | 79 | 1012.0 |
| 20260905012023 | 86 | 134 | 14.0 | 19.0 | 0.00 | 0.00 | 0.00 | 79 | 1012.0 |
| 20260905011546 | 86 | 132 | 12.0 | 19.0 | 0.00 | 0.00 | 0.00 | 80 | 1012.0 |
| 20260905011023 | 86 | 128 | 12.0 | 19.0 | 0.00 | 0.00 | 0.00 | 79 | 1011.9 |
| 20260905010520 | 86 | 142 | 10.0 | 17.0 | 0.00 | 0.00 | 0.00 | 79 | 1011.7 |
| 20260905010047 | 86 | 96 | 9.0 | 19.0 | 0.00 | 0.00 | 0.00 | 79 | 1011.7 |
| 20260905005521 | 86 | 130 | 11.0 | 20.0 | 0.00 | 0.00 | 0.00 | 78 | 1011.7 |
| 20260905005021 | 87 | 124 | 12.0 | 20.0 | 0.00 | 0.00 | 0.00 | 77 | 1011.7 |
| 20260905004549 | 87 | 130 | 13.0 | 20.0 | 0.00 | 0.00 | 0.00 | 76 | 1011.6 |
| 20260905004020 | 87 | 134 | 12.0 | 20.0 | 0.00 | 0.00 | 0.00 | 76 | 1011.5 |
| 20260905003527 | 87 | 129 | 13.0 | 18.0 | 0.00 | 0.00 | 0.00 | 75 | 1011.5 |
| 20260905003042 | 88 | 133 | 11.0 | 21.0 | 0.00 | 0.00 | 0.00 | 75 | 1011.5 |
| 20260905002524 | 88 | 118 | 13.0 | 21.0 | 0.00 | 0.00 | 0.00 | 75 | 1011.5 |
| 20260905002024 | 88 | 107 | 10.0 | 23.0 | 0.00 | 0.00 | 0.00 | 74 | 1011.4 |
| 20260905001548 | 88 | 118 | 12.0 | 23.0 | 0.00 | 0.00 | 0.00 | 74 | 1011.4 |
| 20260905001023 | 89 | 113 | 16.0 | 23.0 | 0.00 | 0.00 | 0.00 | 73 | 1011.3 |
| 20260905000523 | 89 | 108 | 14.0 | 20.0 | 0.00 | 0.00 | 0.00 | 71 | 1011.4 |
| 20260905000046 | 90 | 126 | 13.0 | 19.0 | 0.00 | 0.00 | 0.00 | 70 | 1011.2 |
| 20260904235522 | 90 | 127 | 11.0 | 21.0 | 0.00 | 0.00 | 0.00 | 70 | 1011.2 |
| 20260904235022 | 90 | 109 | 11.0 | 21.0 | 0.00 | 0.00 | 0.00 | 70 | 1011.3 |
| 20260904234543 | 90 | 121 | 14.0 | 25.0 | 0.00 | 0.00 | 0.00 | 70 | 1011.4 |
| 20260904234019 | 90 | 117 | 13.0 | 25.0 | 0.00 | 0.00 | 0.00 | 68 | 1011.4 |
| 20260904233520 | 91 | 115 | 14.0 | 23.0 | 0.00 | 0.00 | 0.00 | 69 | 1011.5 |
| 20260904233045 | 91 | 101 | 13.0 | 23.0 | 0.00 | 0.00 | 0.00 | 69 | 1011.5 |
| 20260904232526 | 91 | 108 | 14.0 | 21.0 | 0.00 | 0.00 | 0.00 | 69 | 1011.6 |
| 20260904232022 | 91 | 98 | 15.0 | 24.0 | 0.00 | 0.00 | 0.00 | 69 | 1011.6 |
| 20260904231550 | 91 | 100 | 15.0 | 24.0 | 0.00 | 0.00 | 0.00 | 68 | 1011.7 |
| 20260904231023 | 92 | 109 | 13.0 | 23.0 | 0.00 | 0.00 | 0.00 | 66 | 1011.8 |
| 20260904230522 | 92 | 94 | 12.0 | 21.0 | 0.00 | 0.00 | 0.00 | 67 | 1011.9 |
| 20260904230046 | 92 | 88 | 13.0 | 21.0 | 0.00 | 0.00 | 0.00 | 66 | 1011.9 |
| 20260904225523 | 93 | 98 | 14.0 | 22.0 | 0.00 | 0.00 | 0.00 | 66 | 1011.9 |
| 20260904225023 | 93 | 119 | 15.0 | 25.0 | 0.00 | 0.00 | 0.00 | 65 | 1011.8 |
| 20260904224559 | 92 | 82 | 14.0 | 25.0 | 0.00 | 0.00 | 0.00 | 67 | 1011.9 |
| 20260904224020 | 93 | 97 | 14.0 | 21.0 | 0.00 | 0.00 | 0.00 | 65 | 1011.9 |
| 20260904223525 | 94 | 108 | 12.0 | 22.0 | 0.00 | 0.00 | 0.00 | 64 | 1011.8 |
| 20260904223047 | 93 | 106 | 12.0 | 26.0 | 0.00 | 0.00 | 0.00 | 64 | 1011.8 |